Abisinia, Peru

4:16 AM -05 on May 23, 2017 (GMT -0500)
Abisinia

Weather History for 84691 - September, 2013

Change the Weather History Date:

Friday, September 20, 2013

  Actual Average Record
Temperature  
Mean Temperature 66 °F -  
Max Temperature 75 °F 71 °F - ()
Min Temperature 57 °F 57 °F - ()
Cooling Degree Days 1    
Growing Degree Days 16 (Base 50)    
Moisture  
Dew Point 58 °F    
Average Humidity 80    
Maximum Humidity 94    
Minimum Humidity 60    
Precipitation  
Precipitation 0.00 in 0.00 in - ()
Sea Level Pressure  
Sea Level Pressure 29.98 in    
Wind  
Wind Speed 6 mph ()    
Max Wind Speed 21 mph    
Max Gust Speed -    
Visibility 4.1 miles    
Events      
T = Trace of Precipitation, MM = Missing Value Source: Averaged Metar Reports

Daily Weather History Graph

Daily Weather History Graph

Search for Another Location

Airport or City:

Trip Planner

Search our weather history database for the weather conditions in past years. The results will help you decide how hot, cold, wet, or windy it might be!

Date:

Astronomy

Sep. 20, 2013 Rise Set
Actual Time 5:55 AM -05 6:00 PM -05
Civil Twilight 5:34 AM -05 6:22 PM -05
Nautical Twilight 5:09 AM -05 6:46 PM -05
Astronomical Twilight 4:45 AM -05 7:11 PM -05
Moon 7:15 PM -05 (9/20) 6:34 AM -05 (9/20)
Length of Visible Light 12h 47m
Length of Day
12h 05m
Full, 98% of the Moon is Illuminated
Sep 20
Full
Sep 26
Last Quarter
Oct 4
New
Oct 11
First Quarter
Oct 18
Full

Hourly Weather History & Observations

Time (-05) Temp. Dew Point Humidity Pressure Visibility Wind Dir Wind Speed Gust Speed Precip Events Conditions
12:00 AM 60.8 °F 57.2 °F 88% 30.06 in 4.3 mi South 4.6 mph - N/A   Scattered Clouds
1:00 AM 60.8 °F 57.2 °F 88% 30.04 in 4.3 mi Variable 2.3 mph - N/A   Mostly Cloudy
2:00 AM 60.8 °F 57.2 °F 88% 30.01 in 4.3 mi Variable 2.3 mph - N/A   Mostly Cloudy
3:00 AM 60.8 °F 57.2 °F 88% 30.01 in 4.3 mi Variable 2.3 mph - N/A   Mostly Cloudy
4:00 AM 60 °F 58 °F 90% 29.98 in 4 mi South 3.5 mph - -   Mist
4:00 AM 60.8 °F 57.2 °F 88% 29.98 in 3.7 mi South 3.5 mph - N/A   Scattered Clouds
5:00 AM 59.0 °F 57.2 °F 94% 30.01 in 3.1 mi Variable 2.3 mph - N/A   Scattered Clouds
6:00 AM 57.2 °F 55.4 °F 94% 30.01 in 2.5 mi Variable 1.2 mph - N/A   Partly Cloudy
7:00 AM 59 °F 56 °F 85% 30.01 in 2 mi Calm Calm - -   Mist
7:00 AM 59.0 °F 55.4 °F 88% 30.01 in 2.5 mi Calm Calm - N/A   Mist
7:20 AM 59.0 °F 55.4 °F 88% 30.04 in 3.1 mi Calm Calm - N/A   Mist
8:00 AM 62.6 °F 59.0 °F 88% 30.04 in 3.1 mi WSW 4.6 mph - N/A   Partly Cloudy
9:00 AM 66.2 °F 60.8 °F 83% 30.04 in 3.1 mi West 4.6 mph - N/A   Mist
10:00 AM 68.0 °F 59.0 °F 73% 30.01 in 3.1 mi West 8.1 mph - N/A   Mist
11:00 AM 68.0 °F 59.0 °F 73% 30.01 in 3.7 mi West 8.1 mph - N/A   Unknown
12:00 PM 69.8 °F 57.2 °F 64% 29.98 in 4.3 mi WSW 9.2 mph - N/A   Unknown
1:00 PM 73.4 °F 59.0 °F 61% 29.95 in 4.3 mi WSW 13.8 mph - N/A   Unknown
2:00 PM 73.4 °F 59.0 °F 61% 29.92 in 4.3 mi WSW 12.7 mph - N/A   Unknown
3:00 PM 73.4 °F 60.8 °F 65% 29.92 in 4.3 mi SW 17.3 mph - N/A   Unknown
4:00 PM 71 °F 60 °F 60% 29.90 in 4 mi SW 20.7 mph - -   Haze
4:00 PM 71.6 °F 60.8 °F 69% 29.92 in 4.3 mi SW 20.7 mph - N/A   Unknown
5:00 PM 68.0 °F 60.8 °F 78% 29.92 in 5.0 mi SW 19.6 mph - N/A   Unknown
6:00 PM 64.4 °F 59.0 °F 83% 29.92 in 5.0 mi SSW 18.4 mph - N/A   Unknown
7:00 PM 63 °F 57 °F 74% 29.94 in 5 mi SSW 15.0 mph - -   Mist
7:00 PM 62.6 °F 57.2 °F 82% 29.95 in 5.0 mi SSW 15.0 mph - N/A   Unknown
8:00 PM 62.6 °F 57.2 °F 82% 29.95 in 5.0 mi SSW 15.0 mph - N/A   Unknown
9:00 PM 62.6 °F 57.2 °F 82% 29.98 in 5.0 mi SSW 13.8 mph - N/A   Unknown
10:00 PM 62 °F 57 °F 79% 29.97 in 5 mi SW 10.4 mph - -   Mist
10:00 PM 60.8 °F 57.2 °F 88% 29.98 in 5.0 mi SW 10.4 mph - N/A   Unknown
11:00 PM 60.8 °F 57.2 °F 88% 29.98 in 5.0 mi SSW 6.9 mph - N/A   Unknown